{"data":{"norad_id":36088,"intl_designator":"2009-061A","name":"SJ-11-01","alt_names":[],"object_type":"PAYLOAD","status":"ACTIVE","operator":null,"country":"PRC","launch_date":"2009-11-12","launch_site_code":"JSC","launch_vehicle":null,"mission":null,"orbit_class":"UNKNOWN","rcs_meters":2.28,"size_class":null,"mass_kg":null,"dimensions":null,"purposes":[],"wikipedia_slug":null,"has_3d_model":false,"image_url":null,"decayed_at":null,"tle_current":{"epoch":"2026-09-20T05:04:31.180800Z","epoch_age_seconds":50550,"freshness":"FRESH","line1":"1 36088U 09061A   26263.21147200  .00000298  00000+0  66070-4 0  9998","line2":"2 36088  98.0174 241.5590 0012336  83.0460 333.3282 14.63761709898393","mean_motion":14.63761709,"eccentricity":0.0012336,"inclination_deg":98.0174,"raan_deg":241.559,"arg_perigee_deg":83.046,"mean_anomaly_deg":333.3282,"bstar":6.607e-5,"rev_number":89839,"period_min":98.376668220387,"perigee_km":672.34557382602,"apogee_km":689.76200934702,"semimajor_km":7059.1907915865,"source":"CELESTRAK","updated_at":"2026-09-20T09:00:13.741939Z"}}}